DW0479 Weather Reports


time (UTC)temp
C
wind
direction
speed
KPH
gust
KPH
rain 1hr
cm
rain 24hr
cm
rain mn
cm
humidity
%
barometer
mb
20260902014721 26 100 0.0 1.6 0.00 0.38 0.38 90 1016.0
20260902014118 26 100 0.0 3.2 0.00 0.38 0.38 89 1016.0
20260902013111 26 100 0.0 0.0 0.00 0.38 0.38 89 1016.1
20260902011634 27 100 0.0 0.0 0.00 0.38 0.38 89 1015.9
20260902010628 27 100 0.0 0.0 0.00 0.38 0.38 88 1015.9
20260902005627 27 100 0.0 0.0 0.00 0.38 0.38 87 1016.0
20260902004623 27 100 0.0 3.2 0.00 0.38 0.38 85 1015.9
20260902003602 27 100 0.0 4.8 0.00 0.38 0.38 85 1015.8
20260902002558 28 100 0.0 6.4 0.00 0.38 0.38 85 1015.8
20260902001547 28 98 1.6 6.4 0.00 0.38 0.38 84 1015.7
20260902000541 28 96 1.6 6.4 0.00 0.38 0.38 84 1015.6
20260901235540 28 96 1.6 6.4 0.00 0.38 0.38 84 1015.5
20260901235012 28 96 3.2 6.4 0.00 0.38 0.38 83 1015.5
20260901234012 28 96 4.8 8.0 0.00 0.38 0.38 82 1015.5
20260901232537 28 69 3.2 11.3 0.00 0.38 0.38 82 1015.4
20260901231537 28 95 3.2 9.7 0.00 0.38 0.38 82 1015.5
20260901230526 28 96 1.6 9.7 0.00 0.38 0.38 82 1015.3
20260901225524 28 97 1.6 6.4 0.00 0.38 0.38 81 1015.2
20260901224524 28 97 1.6 9.7 0.00 0.38 0.38 80 1015.4
20260901224010 28 90 3.2 6.4 0.00 0.38 0.38 79 1015.2
20260901222511 29 90 4.8 11.3 0.00 0.38 0.38 78 1015.2
20260901221510 29 79 3.2 11.3 0.00 0.38 0.38 77 1015.1
20260901220508 29 97 4.8 14.5 0.00 0.38 0.38 77 1015.0
20260901220002 30 113 4.8 11.3 0.00 0.38 0.38 77 1014.9
20260901214505 30 78 6.4 12.9 0.00 0.38 0.38 77 1014.9
20260901213505 30 71 6.4 16.1 0.00 0.38 0.38 76 1014.8
20260901213414 31 55 6.4 17.7 0.00 0.38 0.38 74 1014.6
20260901211458 31 45 6.4 17.7 0.00 0.38 0.38 75 1014.5
20260901210455 31 63 8.0 16.1 0.00 0.38 0.38 73 1014.7
20260901205454 31 43 8.0 16.1 0.00 0.38 0.38 73 1015.0
20260901204454 32 90 8.0 17.7 0.00 0.41 0.38 71 1014.8
20260901203445 32 15 9.7 20.9 0.00 0.43 0.38 72 1014.8
20260901202922 32 67 11.3 20.9 0.00 0.43 0.38 72 1015.0
20260901201434 32 5 12.9 27.4 0.03 0.46 0.38 73 1015.0
20260901200432 32 27 11.3 24.1 0.03 0.46 0.38 71 1015.0
20260901195426 32 25 9.7 17.7 0.03 0.48 0.38 74 1015.1
20260901194426 32 60 9.7 19.3 0.03 0.51 0.38 74 1015.2
20260901193420 32 44 9.7 22.5 0.03 0.53 0.38 73 1015.2
20260901192420 32 54 11.3 22.5 0.03 0.56 0.38 73 1015.2
20260901191855 32 25 8.0 16.1 0.00 0.56 0.36 73 1015.1
20260901190852 32 43 8.0 17.7 0.00 0.61 0.36 69 1015.5
20260901185409 31 10 9.7 19.3 0.00 0.74 0.36 74 1015.6
20260901184846 31 27 6.4 16.1 0.00 0.99 0.36 81 1015.9
20260901183405 30 59 8.0 16.1 0.00 1.07 0.36 80 1016.0
20260901182402 30 10 11.3 20.9 0.00 1.07 0.36 81 1016.2
20260901181402 30 1 14.5 27.4 0.00 1.07 0.36 81 1016.1
20260901180401 30 5 8.0 16.1 0.00 1.07 0.36 80 1016.3
20260901175357 30 346 3.2 9.7 0.00 1.07 0.36 82 1016.3
20260901174353 29 317 1.6 6.4 0.00 1.07 0.36 84 1016.3
20260901173354 29 317 1.6 6.4 0.00 1.07 0.36 86 1016.5
20260901172345 29 318 0.0 4.8 0.00 1.07 0.36 87 1016.6
20260901171836 28 318 1.6 6.4 0.00 1.07 0.36 87 1016.7
20260901170345 28 319 1.6 4.8 0.00 1.07 0.36 88 1016.9
20260901165827 28 320 0.0 3.2 0.00 1.07 0.36 90 1017.0
20260901164334 27 320 0.0 1.6 0.00 1.07 0.36 89 1017.0
20260901163332 27 320 0.0 6.4 0.00 1.07 0.36 91 1017.1
20260901162329 27 22 1.6 6.4 0.00 1.07 0.36 91 1017.2
20260901161328 27 29 0.0 0.0 0.03 1.07 0.36 91 1017.2
20260901161248 26 29 1.6 6.4 0.30 1.07 0.36 90 1017.2
20260901155312 27 19 3.2 6.4 0.30 1.07 0.36 91 1017.4
20260901154749 27 5 0.0 4.8 0.36 1.07 0.36 91 1017.4
20260901153308 27 5 1.6 4.8 0.36 1.07 0.36 90 1017.2
20260901152307 27 5 1.6 6.4 0.36 1.07 0.36 92 1017.3
20260901151741 27 5 4.8 12.9 0.33 1.04 0.33 91 1017.3
20260901150258 28 320 3.2 9.7 0.05 0.76 0.05 91 1017.2
20260901145255 28 329 6.4 12.9 0.05 0.76 0.05 89 1017.1
20260901144246 28 346 6.4 12.9 0.00 0.71 0.00 89 1017.0
20260901143725 28 319 4.8 8.0 0.00 0.71 0.00 89 1016.9
20260901142235 28 352 1.6 6.4 0.00 0.71 0.00 88 1016.9
20260901141237 28 352 3.2 6.4 0.00 0.71 0.00 86 1016.9
20260901140719 28 352 0.0 1.6 0.00 0.71 0.00 89 1016.8
20260901135216 28 352 1.6 4.8 0.00 0.71 0.00 89 1016.8
20260901134213 28 352 3.2 8.0 0.00 0.71 0.00 89 1016.8
20260901133658 28 358 3.2 6.4 0.00 0.71 0.00 90 1016.6
20260901132210 28 358 3.2 6.4 0.00 0.71 0.00 92 1016.7
20260901131210 28 356 3.2 8.0 0.00 0.71 0.00 93 1016.7
20260901130154 27 350 1.6 6.4 0.00 0.71 0.00 94 1016.5
20260901125145 27 350 3.2 6.4 0.00 0.71 0.00 95 1016.5
20260901124147 26 350 1.6 4.8 0.00 0.71 0.00 95 1016.6
20260901123145 26 350 1.6 6.4 0.00 0.71 0.00 95 1016.5
20260901122143 26 350 3.2 4.8 0.00 0.71 0.00 95 1016.4
20260901121132 26 350 1.6 4.8 0.00 0.71 0.00 95 1016.3
20260901120134 26 348 0.0 4.8 0.00 0.71 0.00 95 1016.2
20260901115133 25 348 3.2 8.0 0.00 0.71 0.00 95 1016.2
20260901114134 25 358 4.8 9.7 0.00 0.71 0.00 95 1016.0
20260901113127 25 28 4.8 8.0 0.00 0.71 0.00 95 1016.0
20260901112550 25 28 3.2 8.0 0.00 0.71 0.00 95 1015.9
20260901111111 25 28 1.6 6.4 0.00 0.71 0.00 95 1015.8
20260901110106 25 28 1.6 4.8 0.00 0.71 0.00 95 1015.8
20260901105052 25 28 1.6 4.8 0.00 0.71 0.00 95 1015.8
20260901104048 25 28 0.0 4.8 0.00 0.71 0.00 95 1015.7
20260901103048 25 28 0.0 3.2 0.00 0.71 0.00 95 1015.7
20260901102048 25 28 3.2 6.4 0.00 0.71 0.00 95 1015.6
20260901101050 24 28 0.0 4.8 0.00 0.71 0.00 95 1015.5
20260901100049 24 28 0.0 0.0 0.00 0.71 0.00 95 1015.3
20260901095042 24 28 0.0 0.0 0.00 0.71 0.00 95 1015.2
20260901094043 24 28 0.0 0.0 0.00 0.71 0.00 95 1015.3
20260901093521 24 28 0.0 0.0 0.00 0.71 0.00 95 1015.3
20260901092042 25 28 0.0 3.2 0.00 0.71 0.00 95 1015.2
20260901091035 25 28 0.0 3.2 0.00 0.71 0.00 95 1015.1
20260901090034 25 28 0.0 1.6 0.00 0.71 0.00 95 1015.1
20260901085509 25 28 0.0 1.6 0.00 0.71 0.00 95 1015.1
20260901084035 25 28 0.0 3.2 0.00 0.71 0.00 95 1015.0
20260901083025 25 28 1.6 4.8 0.00 0.71 0.00 95 1015.0
20260901082510 25 28 3.2 4.8 0.00 0.71 0.00 95 1014.9
20260901081025 24 28 0.0 3.2 0.00 0.71 0.00 95 1014.9
20260901080028 25 28 1.6 3.2 0.00 0.71 0.00 95 1015.2
20260901075015 24 28 1.6 4.8 0.00 0.71 0.00 95 1015.2
20260901074014 24 28 0.0 3.2 0.00 0.71 0.00 95 1015.2
20260901073012 24 28 0.0 1.6 0.00 0.71 0.00 95 1015.2
20260901072931 25 28 0.0 1.6 0.00 0.71 0.00 95 1015.3
20260901071010 24 28 0.0 0.0 0.00 0.71 0.00 95 1015.6
20260901070012 25 28 0.0 0.0 0.00 0.71 0.00 95 1015.8
20260901065009 25 28 0.0 1.6 0.00 0.71 0.00 95 1015.7
20260901064007 25 28 1.6 6.4 0.00 0.71 0.00 95 1015.8
20260901062959 25 28 3.2 6.4 0.00 0.71 0.00 95 1016.1
20260901062928 25 28 1.6 4.8 0.00 0.71 0.00 95 1016.2
20260901061921 25 28 3.2 4.8 0.00 0.71 0.00 95 1016.5
20260901060001 25 28 1.6 6.4 0.00 0.71 0.00 95 1016.5
20260901055938 25 28 0.0 3.2 0.00 0.71 0.00 95 1016.8
20260901053959 25 28 0.0 0.0 0.00 0.71 0.00 94 1016.7
20260901052959 25 28 0.0 1.6 0.00 0.71 0.00 94 1017.0
20260901051957 25 28 0.0 0.0 0.00 0.71 0.00 95 1017.0
20260901051000 25 28 0.0 0.0 0.00 0.71 0.00 94 1017.0
20260901045959 25 28 0.0 0.0 0.00 0.71 0.00 94 1017.1
20260901044957 25 28 1.6 4.8 0.00 0.71 0.00 95 1017.3
20260901043958 25 28 0.0 3.2 0.00 0.71 0.00 94 1017.1
20260901043914 25 28 0.0 0.0 0.00 0.71 0.00 94 1017.0
20260901041954 25 28 0.0 4.8 0.00 0.71 0.00 94 1017.1
20260901040941 25 28 1.6 6.4 0.00 0.71 0.00 94 1017.1
20260901035938 25 28 0.0 0.0 0.00 0.71 0.71 94 1017.2
20260901034938 25 28 0.0 1.6 0.00 0.71 0.71 94 1017.1
20260901034425 25 28 0.0 0.0 0.00 0.71 0.71 94 1017.2
20260901032936 25 28 0.0 0.0 0.00 0.71 0.71 94 1017.2
20260901031936 25 28 0.0 1.6 0.00 0.71 0.71 94 1017.3
20260901030937 25 28 1.6 4.8 0.00 0.71 0.71 94 1017.4
20260901025936 25 28 0.0 4.8 0.00 0.71 0.71 94 1017.3
20260901024935 25 28 1.6 4.8 0.00 0.71 0.71 94 1017.2
20260901023936 25 28 0.0 3.2 0.00 0.71 0.71 94 1017.2
20260901022937 25 28 0.0 0.0 0.00 0.71 0.71 94 1017.1
20260901021940 25 28 0.0 1.6 0.00 0.71 0.71 94 1016.9
20260901020920 25 28 0.0 0.0 0.00 0.71 0.71 94 1016.9
20260901015917 26 28 0.0 3.2 0.00 0.71 0.71 94 1016.9
20260901015347 25 28 0.0 3.2 0.00 0.71 0.71 94 1016.7